Location: Deardoffs Mills (historical)
(40.6353°N, 81.5590°W)
Time: 14:21:31
(UTC+00:00)

X-37B - Visible Passes

Search period start: 29 September 2022 00:00
Search period end: 09 October 2022 00:00
Orbit: 330 x 340 km, 45.0° (Epoch: 02 September)

Date Brightness Start Highest point End Pass type
(mag) Time Alt. Az. Time Alt. Az. Time Alt. Az.
29 Sep 3.9 08:56:07 13° ENE 08:56:07 13° ENE 08:56:27 10° ENE visible
29 Sep 1.7 10:27:20 14° WNW 10:29:25 31° N 10:32:03 10° ENE visible
30 Sep 3.0 09:15:42 20° NE 09:15:42 20° NE 09:16:53 10° ENE visible
30 Sep 1.4 10:47:19 10° WNW 10:50:03 38° N 10:52:46 10° E visible
01 Oct 2.0 09:35:18 29° NNE 09:35:18 29° NNE 09:37:29 10° ENE visible
02 Oct 1.4 09:54:57 34° NNW 09:55:28 37° N 09:58:11 10° E visible
03 Oct 0.6 10:14:39 26° NW 10:16:02 63° NNE 10:18:53 10° ESE visible
04 Oct 3.8 09:03:12 13° ENE 09:03:12 13° ENE 09:03:36 10° E visible
04 Oct 0.5 10:34:27 17° WNW 10:36:28 57° SSW 10:39:18 10° SE visible
05 Oct 2.9 09:23:05 22° E 09:23:05 22° E 09:24:18 10° E visible
05 Oct 1.9 10:54:26 10° W 10:56:45 22° SW 10:59:04 10° SSE visible
06 Oct 1.9 09:43:06 29° SE 09:43:06 29° SE 09:44:43 10° SE visible
07 Oct 2.4 10:03:14 18° S 10:03:14 18° S 10:04:30 10° SSE visible
